User: anonymous   Login
Location: ????
(30.1475°N, 31.1342°E)
Time: 22:34:23
(UTC+00:00)
Language:

Cosmos 1605 Rocket - Orbit

View from above orbital plane
View from above orbital plane
View from above satellite
View from above satellite

Ground track
Ground track

The orbit data is extracted from the following two-line orbital elements,

1 15360U 84109B   24151.57017299  .00000188  00000-0  17437-3 0  9992
2 15360  82.9383 321.4091 0042071 148.0963 212.2755 13.76922215990746
Epoch (UTC): 30 May 2024 13:41:02
Eccentricity: 0.0042071
inclination: 82.9383°
perigee height: 944 km
apogee height: 1006 km
right ascension of ascending node: 321.4091°
argument of perigee: 148.0963°
revolutions per day: 13.76922215
mean anomaly at epoch: 212.2755°
orbit number at epoch: 99074

The dashed part of the orbit path shows where the satellite is in the earth's shadow,  

DLR